Location: Volcano
(19.4310°N, 155.2380°W)
Time: 10:33:14
(UTC-10:00)

Hubble Space Telescope - Visible Passes

Search period start: 15 January 2021 00:00
Search period end: 25 January 2021 00:00
Orbit: 536 x 539 km, 28.5° (Epoch: 15 January)

Date Brightness Start Highest point End Pass type
(mag) Time Alt. Az. Time Alt. Az. Time Alt. Az.
15 Jan 0.9 18:22:56 10° WSW 18:27:02 66° SSE 18:31:07 10° ENE visible
15 Jan 2.6 20:04:29 10° W 20:06:44 26° WNW 20:06:44 26° WNW visible
16 Jan 2.4 19:53:53 10° WNW 19:56:37 27° NW 19:56:37 27° NW visible
17 Jan 2.2 19:43:17 10° WNW 19:46:28 27° NNW 19:46:28 27° NNW visible
18 Jan 2.2 19:32:41 10° WNW 19:36:08 25° N 19:36:19 25° N visible
19 Jan 2.2 19:22:04 10° WNW 19:25:26 23° N 19:26:10 22° NNE visible
20 Jan 2.3 19:11:26 10° NW 19:14:44 23° N 19:16:01 20° NNE visible
21 Jan 2.4 19:00:46 10° NW 19:04:02 22° N 19:05:54 17° NE visible
22 Jan 2.3 18:50:03 10° NW 18:53:20 23° N 18:55:48 14° NE visible
23 Jan 2.2 18:39:17 10° NW 18:42:38 23° N 18:45:46 11° ENE visible
23 Jan 3.4 20:20:17 10° WNW 20:21:07 15° NW 20:21:07 15° NW visible
24 Jan 2.1 18:28:30 10° NW 18:31:56 25° N 18:35:23 10° ENE visible
24 Jan 2.8 20:09:25 10° WNW 20:11:09 23° NW 20:11:09 23° NW visible
